Weather History for Pine River, MN

Change the Weather History Date:

Saturday, May 12, 2012

  Actual Average Record
Temperature  
Mean Temperature 48 °F -  
Max Temperature 68 °F 62 °F 71 °F (2007)
Min Temperature 28 °F 39 °F 21 °F (2013)
Degree Days  
Heating Degree Days 17    
Moisture  
Dew Point 26 °F    
Average Humidity 47    
Maximum Humidity 93    
Minimum Humidity 17    
Precipitation  
Precipitation 0.00 in - - ()
Sea Level Pressure  
Sea Level Pressure 30.30 in    
Wind  
Wind Speed 2 mph (West)    
Max Wind Speed 10 mph    
Max Gust Speed 17 mph    
Visibility 10 miles    
Events      
Averages and records for this station are not official NWS values.
T = Trace of Precipitation, MM = Missing Value Source: NWS Daily Summary

Daily Weather History Graph

Daily Weather History Graph

Search for Another Location

Airport:

Trip Planner

Search our weather history database for the weather conditions in past years. The results will help you decide how hot, cold, wet, or windy it might be!

Date:

Astronomy

May. 12, 2012 Rise Set
Actual Time 5:46 AM CDT 8:42 PM CDT
Civil Twilight 5:10 AM CDT 9:17 PM CDT
Nautical Twilight 4:25 AM CDT 10:03 PM CDT
Astronomical Twilight 3:31 AM CDT 10:58 PM CDT
Moon 1:49 AM CDT (5/12) 12:34 PM CDT (5/12)
Length of Visible Light 16h 07m
Length of Day
14h 56m
Waning Gibbous, 52% of the Moon is Illuminated
May 12
Waning Gibbous
May 12
Last Quarter
May 20
New
May 28
First Quarter
Jun 4
Full

Hourly Weather History & Observations

Time (CDT) Temp. Dew Point Humidity Pressure Visibility Wind Dir Wind Speed Gust Speed Precip Events Conditions
12:13 AM 37.4 °F 32.0 °F 81% 30.27 in 10.0 mi Calm Calm - N/A   Clear
12:32 AM 37.4 °F 32.0 °F 81% 30.27 in 10.0 mi Calm Calm - N/A   Clear
12:52 AM 35.6 °F 32.0 °F 87% 30.28 in 10.0 mi Calm Calm - N/A   Clear
1:13 AM 35.6 °F 32.0 °F 87% 30.28 in 10.0 mi Calm Calm - N/A   Clear
1:33 AM 33.8 °F 30.2 °F 87% 30.28 in 10.0 mi Calm Calm - N/A   Clear
1:52 AM 33.8 °F 30.2 °F 87% 30.28 in 10.0 mi Calm Calm - N/A   Clear
2:13 AM 33.8 °F 30.2 °F 87% 30.29 in 10.0 mi Calm Calm - N/A   Clear
2:33 AM 32.0 °F 30.2 °F 93% 30.29 in 10.0 mi Calm Calm - N/A   Clear
2:52 AM 32.0 °F 30.2 °F 93% 30.29 in 10.0 mi Calm Calm - N/A   Clear
3:13 AM 32.0 °F 28.4 °F 87% 30.30 in 10.0 mi Calm Calm - N/A   Clear
3:33 AM 30.2 °F 28.4 °F 93% 30.30 in 10.0 mi Calm Calm - N/A   Clear
3:52 AM 30.2 °F 28.4 °F 93% 30.31 in 10.0 mi Calm Calm - N/A   Clear
4:13 AM 28.4 °F 26.6 °F 93% 30.31 in 10.0 mi Calm Calm - N/A   Clear
4:33 AM 30.2 °F 26.6 °F 86% 30.31 in 10.0 mi Calm Calm - N/A   Clear
4:52 AM 30.2 °F 28.4 °F 93% 30.31 in 10.0 mi Calm Calm - N/A   Clear
5:13 AM 28.4 °F 26.6 °F 93% 30.32 in 10.0 mi Calm Calm - N/A   Clear
5:33 AM 28.4 °F 26.6 °F 93% 30.33 in 10.0 mi Calm Calm - N/A   Clear
5:52 AM 28.4 °F 26.6 °F 93% 30.34 in 10.0 mi Calm Calm - N/A   Clear
6:13 AM 28.4 °F 26.6 °F 93% 30.34 in 10.0 mi Calm Calm - N/A   Clear
6:33 AM 28.4 °F 26.6 °F 93% 30.35 in 10.0 mi Calm Calm - N/A   Clear
6:52 AM 32.0 °F 28.4 °F 87% 30.35 in 10.0 mi Calm Calm - N/A   Clear
7:13 AM 35.6 °F 30.2 °F 81% 30.35 in 10.0 mi Calm Calm - N/A   Clear
7:32 AM 39.2 °F 33.8 °F 81% 30.36 in 10.0 mi Calm Calm - N/A   Clear
7:53 AM 44.6 °F 35.6 °F 71% 30.36 in 10.0 mi Calm Calm - N/A   Clear
8:13 AM 50.0 °F 30.2 °F 47% 30.36 in 10.0 mi Calm Calm - N/A   Clear
8:53 AM 55.4 °F 28.4 °F 36% 30.37 in 10.0 mi WSW 5.8 mph - N/A   Clear
9:13 AM 57.2 °F 26.6 °F 31% 30.37 in 10.0 mi West 5.8 mph - N/A   Clear
9:32 AM 57.2 °F 26.6 °F 31% 30.37 in 10.0 mi West 5.8 mph - N/A   Clear
9:53 AM 59.0 °F 26.6 °F 29% 30.36 in 10.0 mi West 5.8 mph - N/A   Clear
10:13 AM 60.8 °F 26.6 °F 27% 30.36 in 10.0 mi West 6.9 mph - N/A   Clear
10:32 AM 60.8 °F 26.6 °F 27% 30.36 in 10.0 mi West 8.1 mph - N/A   Clear
10:53 AM 62.6 °F 24.8 °F 24% 30.36 in 10.0 mi WNW 6.9 mph - N/A   Clear
11:13 AM 62.6 °F 23.0 °F 22% 30.36 in 10.0 mi WNW 9.2 mph - N/A   Clear
11:32 AM 62.6 °F 21.2 °F 20% 30.35 in 10.0 mi SSW 8.1 mph - N/A   Clear
11:53 AM 62.6 °F 21.2 °F 20% 30.35 in 10.0 mi NNW 9.2 mph - N/A   Clear
12:13 PM 62.6 °F 21.2 °F 20% 30.35 in 10.0 mi WNW 6.9 mph - N/A   Clear
12:32 PM 64.4 °F 19.4 °F 18% 30.34 in 10.0 mi WNW 9.2 mph - N/A   Clear
12:53 PM 64.4 °F 21.2 °F 19% 30.33 in 10.0 mi North 10.4 mph 16.1 mph N/A   Clear
1:12 PM 64.4 °F 19.4 °F 18% 30.33 in 10.0 mi Calm Calm - N/A   Clear
1:33 PM 66.2 °F 21.2 °F 18% 30.32 in 10.0 mi WSW 9.2 mph - N/A   Clear
2:12 PM 66.2 °F 21.2 °F 18% 30.31 in 10.0 mi WSW 10.4 mph - N/A   Clear
2:33 PM 66.2 °F 21.2 °F 18% 30.31 in 10.0 mi WNW 4.6 mph 17.3 mph N/A   Clear
2:52 PM 66.2 °F 23.0 °F 19% 30.30 in 10.0 mi West 10.4 mph 16.1 mph N/A   Clear
3:12 PM 66.2 °F 23.0 °F 19% 30.30 in 10.0 mi WNW 8.1 mph 16.1 mph N/A   Clear
3:33 PM 66.2 °F 21.2 °F 18% 30.29 in 10.0 mi WNW 4.6 mph - N/A   Clear
3:52 PM 66.2 °F 21.2 °F 18% 30.29 in 10.0 mi West 8.1 mph - N/A   Clear
4:12 PM 68.0 °F 21.2 °F 17% 30.29 in 10.0 mi WNW 9.2 mph 16.1 mph N/A   Clear
4:33 PM 68.0 °F 23.0 °F 18% 30.28 in 10.0 mi West 10.4 mph 17.3 mph N/A   Clear
4:53 PM 68.0 °F 23.0 °F 18% 30.27 in 10.0 mi SW 10.4 mph - N/A   Clear
5:12 PM 68.0 °F 23.0 °F 18% 30.27 in 10.0 mi West 3.5 mph - N/A   Clear
5:33 PM 66.2 °F 21.2 °F 18% 30.27 in 10.0 mi West 4.6 mph 16.1 mph N/A   Clear
5:52 PM 66.2 °F 21.2 °F 18% 30.26 in 10.0 mi West 8.1 mph - N/A   Clear
6:13 PM 66.2 °F 21.2 °F 18% 30.26 in 10.0 mi NW 8.1 mph - N/A   Clear
6:32 PM 66.2 °F 21.2 °F 18% 30.26 in 10.0 mi West 5.8 mph - N/A   Clear
6:53 PM 66.2 °F 21.2 °F 18% 30.26 in 10.0 mi West 4.6 mph - N/A   Clear
7:13 PM 66.2 °F 23.0 °F 19% 30.25 in 10.0 mi SW 4.6 mph - N/A   Clear
7:32 PM 66.2 °F 23.0 °F 19% 30.25 in 10.0 mi WSW 5.8 mph - N/A   Clear
7:53 PM 64.4 °F 24.8 °F 22% 30.25 in 10.0 mi SSW 4.6 mph - N/A   Clear
8:12 PM 62.6 °F 26.6 °F 26% 30.25 in 10.0 mi SW 3.5 mph - N/A   Clear
8:33 PM 60.8 °F 26.6 °F 27% 30.25 in 10.0 mi SW 3.5 mph - N/A   Clear
8:53 PM 60.8 °F 26.6 °F 27% 30.25 in 10.0 mi Calm Calm - N/A   Clear
9:12 PM 59.0 °F 26.6 °F 29% 30.25 in 10.0 mi SSW 3.5 mph - N/A   Clear
9:33 PM 57.2 °F 26.6 °F 31% 30.26 in 10.0 mi Calm Calm - N/A   Clear
9:53 PM 53.6 °F 28.4 °F 38% 30.26 in 10.0 mi Calm Calm - N/A   Clear
10:12 PM 48.2 °F 30.2 °F 50% 30.26 in 10.0 mi Calm Calm - N/A   Clear
10:33 PM 48.2 °F 30.2 °F 50% 30.26 in 10.0 mi Calm Calm - N/A   Clear
10:53 PM 48.2 °F 30.2 °F 50% 30.26 in 10.0 mi SSW 3.5 mph - N/A   Clear
11:12 PM 50.0 °F 28.4 °F 43% 30.26 in 10.0 mi SSW 3.5 mph - N/A   Clear
11:33 PM 51.8 °F 28.4 °F 41% 30.26 in 10.0 mi Calm Calm - N/A   Clear
11:53 PM 51.8 °F 28.4 °F 41% 30.26 in 10.0 mi SW 3.5 mph - N/A   Clear